Regional Weather Roundup
Issued by NWS

Home | Current Version | Previous Version | Text Only | Print | Product List | Glossary Off
Versions: 1 2 3 4 5 6 7 8 9 10 11 12 13 14 15 16 17 18 19 20 21 22 23 24 25 26 27 28 29 30 31 32 33 34 35 36 37 38 39 40 41 42 43 44 45 46 47 48 49 50

745
ASUS43 KLOT 061803
RWRIL

ILLINOIS REGIONAL WEATHER ROUNDUP
NATIONAL WEATHER SERVICE CHICAGO/ROMEOVILLE IL
100 PM CDT FRI MAY 06 2016

NOTE: "FAIR" INDICATES FEW OR NO CLOUDS BELOW 12,000 FEET WITH NO
SIGNIFICANT WEATHER AND/OR OBSTRUCTIONS TO VISIBILITY.

* THESE STATIONS ARE NOT UNDER NWS QUALITY CONTROL. THEY ALSO MAY NOT
  REPORT WEATHER SUCH AS PRECIPITATION OR FOG.

ILZ001-002-007-009-015-016-024-061900-
NORTHWEST ILLINOIS

CITY           SKY/WX    TMP DP  RH WIND       PRES   REMARKS
MOLINE         SUNNY     79  48  33 W12       29.95F
6HR MIN TEMP:  47; 6HR MAX TEMP:  79;

STERLING*      SUNNY     77  52  41 W12       29.93F
$$

ILZ003-004-008-010-011-017-018-061900-
NORTH CENTRAL ILLINOIS

CITY           SKY/WX    TMP DP  RH WIND       PRES   REMARKS
ROCKFORD       SUNNY     77  49  37 W7        29.92F
6HR MIN TEMP:  50; 6HR MAX TEMP:  77;

FREEPORT*      SUNNY     75  50  40 W13       29.94F
DE KALB*       SUNNY     77  50  38 W13       29.92F
$$

ILZ005-006-012>014-019>023-061900-
NORTHEAST ILLINOIS

CITY           SKY/WX    TMP DP  RH WIND       PRES   REMARKS
CHICAGO-OHARE  MOSUNNY   74  42  31 SW10      29.90F
6HR MIN TEMP:  52; 6HR MAX TEMP:  74; 6HR PCP: TRACE;

CHICAGO-MIDWAY MOSUNNY   73  43  33 S9        29.92F
6HR MIN TEMP:  52; 6HR MAX TEMP:  73;

AURORA         SUNNY     76  46  34 SW14      29.92F
6HR MIN TEMP:  47; 6HR MAX TEMP:  77;

LANSING*       MOSUNNY   71  40  33 SW9       29.94F
WAUKEGAN       MOSUNNY   75  44  33 SW6G16    29.88F
6HR MIN TEMP:  52; 6HR MAX TEMP:  75; 6HR PCP: TRACE;

DUPAGE AIRPORT SUNNY     74  45  35 SW10      29.90F
6HR MIN TEMP:  48; 6HR MAX TEMP:  75; 6HR PCP: TRACE;

WHEELING       SUNNY     74  43  32 SW6       29.91F
6HR MIN TEMP:  50; 6HR MAX TEMP:  74;

NORTHERLY ISL    N/A     71  38  29 SW5         N/A
NORTHERLY ISL    N/A     71  38  29 SW5         N/A
$$

LMZ740>746-061900-
SOUTHERN LAKE MICHIGAN

STATION/POSITION SKY/WX   TEMP    WIND        PRES    VSBY  WAVE
                          AIR SEA DIR/SP/G                  HT/PER
                          (F)     (DEG/KT/KT) (MB)    (MI)  (FT/S)
SOUTHERN BUOY              44 41  160/ 10/ 12 1014.1          0
WILMETTE HARBOR            50 45  170/  8/ 10   N/A           1
HARRISON CRIB              65     190/  9/ 10   N/A
BURNHAM HARBOR             71     210/ 11/ 11   N/A
CALUMET HARBOR             69     190/  7/ 13 1013.8F
BURNS HARBOR               63     330/  2/  4 1015.6F
MICHIGAN CITY              60     230/  4/  4   N/A
ST. JOSEPH                 52 33                N/A           1
$$

ILZ025>027-034>036-040-047-049-050-058-095>099-061900-
WEST-CENTRAL ILLINOIS

CITY           SKY/WX    TMP DP  RH WIND       PRES   REMARKS
QUINCY         SUNNY     75  47  36 SW9       30.02F
MACOMB*        SUNNY     76  43  31 W10       30.02F
$$

ILZ028>032-037-038-041>044-048-051>054-059>061-061900-
CENTRAL ILLINOIS

CITY           SKY/WX    TMP DP  RH WIND       PRES   REMARKS
BLOOMINGTON    CLOUDY    73  43  34 W12       29.99F
DECATUR        MOSUNNY   71  41  33 W7        30.00F
PEORIA         SUNNY     76  43  30 W9        29.97F
6HR MIN TEMP:  45; 6HR MAX TEMP:  76;

SPRINGFIELD    SUNNY     77  38  24 CALM      30.00F
6HR MIN TEMP:  48; 6HR MAX TEMP:  78;

TAYLORVILLE    NOT AVBL
$$

ILZ033-039-045-046-055>057-062-063-061900-
EAST-CENTRAL ILLINOIS

CITY           SKY/WX    TMP DP  RH WIND       PRES   REMARKS
CHAMPAIGN      SUNNY     71  37  28 VRB6      30.00F
MATTOON        SUNNY     70  42  36 NW10      30.01F
$$

ILZ079-100>102-061900-
SOUTHWEST ILLINOIS

CITY           SKY/WX    TMP DP  RH WIND       PRES   REMARKS
ALTON          SUNNY     72  45  37 SW9       30.05F
CAHOKIA*       SUNNY     75  39  27 W7        30.04F
SPARTA*        SUNNY     69  43  38 W3        30.07F
$$

ILZ064>066-069>071-074>076-080>082-084>086-088>090-092>094-061900-
SOUTH-CENTRAL ILLINOIS

CITY           SKY/WX    TMP DP  RH WIND       PRES   REMARKS
CARBONDALE     SUNNY     70  41  34 NW9       30.05F
6HR MIN TEMP:  46; 6HR MAX TEMP:  71;

MARION         SUNNY     70  43  37 NW8       30.06F
MT. VERNON     SUNNY     70  45  40 CALM      30.05F
SALEM*         SUNNY     71  42  34 N5        30.04F
$$

ILZ067-068-072-073-078-083-087-091-061900-
SOUTHEAST ILLINOIS

CITY           SKY/WX    TMP DP  RH WIND       PRES   REMARKS
LAWRENCEVILLE  SUNNY     70  43  37 NW9       30.02F
FLORA*         SUNNY     71  42  35 W5        30.04F
HARRISBURG*    SUNNY     69  46  42 CALM      30.05F
ROBINSON*      SUNNY     68  47  47 NW8       30.03F
$$

ABBREVIATIONS USED IN REMARKS
   TC - TEMPERATURE IN CELSIUS
  WCI - WIND CHILL INDEX
   HX - HEAT INDEX
  VSB - VISIBILITY
$$





USA.gov is the U.S. government's official web portal to all federal, state and local government web resources and services.